Simultaneous Nadir Overpasses (SNOs) Predictions

Prediction of SNOs between FY3D and METOP-C Satellite Orbit:

Table of predicted SNOs for the next 14.0 days since TLE Epoch: 2/7/2022
Index Date (FY3D) Time (FY3D) Lat,Lon (FY3D) SZA (FY3D ) Date (METOP-C) Time (METOP-C) Lat,Lon (METOP-C) SZA (METOP-C ) Distance(km) Time Diff (sec)
1 02/20/2022 06:19:24 74.50, 77.75 85.60 02/20/2022 06:20:29 74.50, 81.06 85.45 98.23 65
2 02/20/2022 07:10:07 -74.46,-114.83 94.47 02/20/2022 07:11:13 -74.41,-111.87 94.66 88.55 66
3 02/20/2022 08:00:47 74.14, 53.32 85.17 02/20/2022 08:01:58 74.09, 54.66 85.05 41.25 71
4 02/20/2022 08:51:31 -74.10,-139.27 94.89 02/20/2022 08:52:42 -74.04,-138.13 95.01 35.40 71
5 02/20/2022 09:42:12 73.82, 28.73 84.79 02/20/2022 09:43:25 73.82, 28.67 84.78 1.95 73
6 02/20/2022 10:32:57 -73.83,-163.99 95.21 02/20/2022 10:34:08 -73.83,-164.00 95.23 1.08 71
7 02/20/2022 11:23:44 73.85, 3.28 84.80 02/20/2022 11:24:46 73.85, 3.39 84.78 3.44 62
8 02/20/2022 12:14:28 -73.81, 170.69 95.26 02/20/2022 12:15:30 -73.80, 170.61 95.28 2.55 62
9 02/20/2022 13:05:15 73.83, -22.04 84.75 02/20/2022 13:06:08 73.83, -22.00 84.73 1.38 53
10 02/20/2022 13:56:00 -73.84, 145.24 95.26 02/20/2022 13:56:51 -73.83, 145.34 95.28 2.96 51
11 02/20/2022 14:46:46 73.80, -47.37 84.70 02/20/2022 14:47:30 73.80, -47.39 84.69 0.69 44
12 02/20/2022 15:37:31 -73.81, 119.92 95.31 02/20/2022 15:38:13 -73.81, 119.95 95.32 0.95 42
13 02/20/2022 16:28:17 73.78, -72.69 84.64 02/20/2022 16:28:52 73.78, -72.78 84.64 2.75 35
14 02/20/2022 17:19:02 -73.79, 94.60 95.36 02/20/2022 17:19:35 -73.79, 94.56 95.37 1.17 33
15 02/20/2022 18:09:49 73.81, -98.13 84.65 02/20/2022 18:10:13 73.81, -98.05 84.64 2.66 24
16 02/20/2022 19:00:33 -73.77, 69.27 95.41 02/20/2022 19:00:57 -73.77, 69.17 95.41 3.18 24
17 02/20/2022 19:51:20 73.78,-123.46 84.60 02/20/2022 19:51:35 73.79,-123.44 84.60 0.95 15
18 02/20/2022 20:42:05 -73.79, 43.83 95.41 02/20/2022 20:42:18 -73.80, 43.90 95.41 2.14 13
19 02/20/2022 21:32:51 73.76,-148.78 84.55 02/20/2022 21:32:57 73.77,-148.83 84.56 1.78 6
20 02/20/2022 22:23:36 -73.77, 18.50 95.46 02/20/2022 22:23:40 -73.78, 18.50 95.46 0.44 4
21 02/20/2022 23:14:22 73.74,-174.11 84.50 02/20/2022 23:14:19 73.75,-174.22 84.51 3.72 3
22 02/21/2022 00:05:07 -73.75, -6.82 95.51 02/21/2022 00:05:02 -73.75, -6.89 95.50 2.01 5
23 02/21/2022 00:55:54 73.76, 160.45 84.50 02/21/2022 00:55:40 73.78, 160.51 84.51 2.26 14
24 02/21/2022 01:46:39 -73.78, -32.27 95.51 02/21/2022 01:46:23 -73.78, -32.16 95.50 3.50 16
25 02/21/2022 02:37:25 73.74, 135.12 84.45 02/21/2022 02:37:02 73.75, 135.11 84.47 1.60 23



Historial Predications of SNOs between FY3D and METOP-C
